| time (UTC) | temp F | wind direction | speed MPH | gust MPH | rain 1hr in | rain 24hr in | rain mn in | humidity % | barometer mb |
| 20260506073101 | 64 | 0 | 0.0 | 0.0 | 0.00 | 0.00 | 0.00 | 58 | 1007.9 |
| 20260506072101 | 65 | 0 | 0.0 | 0.0 | 0.00 | 0.00 | 0.00 | 56 | 1008.3 |
| 20260506071101 | 66 | 0 | 0.0 | 0.0 | 0.00 | 0.00 | 0.00 | 54 | 1008.3 |
| 20260506062100 | 70 | 0 | 0.0 | 0.0 | 0.00 | 0.00 | 0.00 | 50 | 1008.6 |
| 20260506061100 | 69 | 0 | 0.0 | 0.0 | 0.00 | 0.00 | 0.00 | 49 | 1008.6 |
| 20260506051100 | 70 | 0 | 0.0 | 0.0 | 0.00 | 0.00 | 0.00 | 48 | 1008.6 |
| 20260506045100 | 69 | 0 | 0.0 | 0.0 | 0.00 | 0.00 | 0.00 | 49 | 1008.6 |
| 20260506044059 | 70 | 0 | 0.0 | 0.0 | 0.00 | 0.00 | 0.00 | 48 | 1008.6 |
| 20260506043059 | 71 | 0 | 0.0 | 0.0 | 0.00 | 0.00 | 0.00 | 46 | 1008.6 |
| 20260506042059 | 72 | 0 | 0.0 | 0.0 | 0.00 | 0.00 | 0.00 | 45 | 1008.6 |
| 20260506041059 | 72 | 0 | 0.0 | 0.0 | 0.00 | 0.00 | 0.00 | 44 | 1008.3 |
| 20260506040059 | 72 | 0 | 0.0 | 0.0 | 0.00 | 0.00 | 0.00 | 44 | 1008.6 |
| 20260506035058 | 72 | 0 | 0.0 | 0.0 | 0.00 | 0.00 | 0.00 | 44 | 1008.3 |
| 20260506034058 | 72 | 0 | 0.0 | 0.0 | 0.00 | 0.00 | 0.00 | 44 | 1008.3 |
| 20260506033059 | 72 | 0 | 0.0 | 0.0 | 0.00 | 0.00 | 0.00 | 44 | 1008.3 |
| 20260506032058 | 71 | 0 | 0.0 | 0.0 | 0.00 | 0.00 | 0.00 | 47 | 1008.3 |
| 20260506031058 | 68 | 0 | 0.0 | 0.0 | 0.00 | 0.00 | 0.00 | 49 | 1008.3 |
| 20260506030058 | 68 | 0 | 0.0 | 0.0 | 0.00 | 0.00 | 0.00 | 50 | 1008.3 |
| 20260506025059 | 69 | 0 | 0.0 | 0.0 | 0.00 | 0.00 | 0.00 | 49 | 1008.3 |
| 20260506024057 | 69 | 0 | 0.0 | 0.0 | 0.00 | 0.00 | 0.00 | 48 | 1008.3 |
| 20260506023058 | 70 | 0 | 0.0 | 0.0 | 0.00 | 0.00 | 0.00 | 47 | 1008.3 |
| 20260506022057 | 70 | 0 | 0.0 | 0.0 | 0.00 | 0.00 | 0.00 | 47 | 1008.3 |
| 20260506021058 | 71 | 0 | 0.0 | 0.0 | 0.00 | 0.00 | 0.00 | 47 | 1008.3 |
| 20260506020057 | 72 | 0 | 0.0 | 0.0 | 0.00 | 0.00 | 0.00 | 45 | 1008.3 |
| 20260506015057 | 72 | 0 | 0.0 | 0.0 | 0.00 | 0.00 | 0.00 | 43 | 1007.9 |
| 20260506014056 | 73 | 0 | 0.0 | 0.0 | 0.00 | 0.00 | 0.00 | 42 | 1007.9 |
| 20260506013056 | 73 | 0 | 0.0 | 0.0 | 0.00 | 0.00 | 0.00 | 41 | 1007.9 |
| 20260506012057 | 75 | 0 | 0.0 | 0.0 | 0.00 | 0.00 | 0.00 | 39 | 1007.9 |
| 20260506011056 | 76 | 0 | 0.0 | 0.0 | 0.00 | 0.00 | 0.00 | 38 | 1007.6 |
| 20260506010056 | 76 | 0 | 0.0 | 0.0 | 0.00 | 0.00 | 0.00 | 37 | 1007.6 |
| 20260506005056 | 77 | 0 | 0.0 | 0.0 | 0.00 | 0.00 | 0.00 | 35 | 1007.6 |
| 20260506004056 | 77 | 0 | 0.0 | 0.0 | 0.00 | 0.00 | 0.00 | 35 | 1007.2 |
| 20260506003056 | 77 | 0 | 0.0 | 0.0 | 0.00 | 0.00 | 0.00 | 35 | 1007.2 |
| 20260506002056 | 78 | 0 | 0.0 | 0.0 | 0.00 | 0.00 | 0.00 | 34 | 1006.9 |
| 20260506001055 | 78 | 0 | 0.0 | 0.0 | 0.00 | 0.00 | 0.00 | 34 | 1006.9 |
| 20260506000056 | 78 | 0 | 0.0 | 0.0 | 0.00 | 0.00 | 0.00 | 34 | 1006.6 |
| 20260505235056 | 78 | 0 | 0.0 | 0.0 | 0.00 | 0.00 | 0.00 | 34 | 1006.6 |
| 20260505234056 | 78 | 0 | 0.0 | 0.0 | 0.00 | 0.00 | 0.00 | 33 | 1006.6 |
| 20260505233055 | 79 | 0 | 0.0 | 0.0 | 0.00 | 0.00 | 0.00 | 33 | 1006.6 |
| 20260505232055 | 79 | 0 | 0.0 | 0.0 | 0.00 | 0.00 | 0.00 | 33 | 1006.2 |
| 20260505231055 | 80 | 0 | 0.0 | 0.0 | 0.00 | 0.00 | 0.00 | 32 | 1006.2 |
| 20260505230054 | 80 | 0 | 0.0 | 0.0 | 0.00 | 0.00 | 0.00 | 32 | 1006.2 |
| 20260505225054 | 80 | 0 | 0.0 | 0.0 | 0.00 | 0.00 | 0.00 | 31 | 1005.9 |
| 20260505224054 | 80 | 0 | 0.0 | 0.0 | 0.00 | 0.00 | 0.00 | 31 | 1005.9 |
| 20260505223054 | 80 | 0 | 0.0 | 0.0 | 0.00 | 0.00 | 0.00 | 31 | 1005.6 |
| 20260505222054 | 80 | 0 | 0.0 | 0.0 | 0.00 | 0.00 | 0.00 | 30 | 1005.6 |
| 20260505221054 | 81 | 0 | 0.0 | 0.0 | 0.00 | 0.00 | 0.00 | 30 | 1005.6 |
| 20260505220054 | 81 | 0 | 0.0 | 0.0 | 0.00 | 0.00 | 0.00 | 30 | 1005.6 |
| 20260505215054 | 81 | 0 | 0.0 | 0.0 | 0.00 | 0.00 | 0.00 | 30 | 1005.2 |
| 20260505214054 | 82 | 0 | 0.0 | 0.0 | 0.00 | 0.00 | 0.00 | 29 | 1005.2 |
| 20260505213053 | 82 | 0 | 0.0 | 0.0 | 0.00 | 0.00 | 0.00 | 29 | 1004.9 |
| 20260505212053 | 82 | 0 | 0.0 | 0.0 | 0.00 | 0.00 | 0.00 | 29 | 1004.9 |
| 20260505211053 | 82 | 0 | 0.0 | 0.0 | 0.00 | 0.00 | 0.00 | 28 | 1004.9 |
| 20260505210053 | 83 | 0 | 0.0 | 0.0 | 0.00 | 0.00 | 0.00 | 28 | 1004.9 |
| 20260505205053 | 84 | 0 | 0.0 | 0.0 | 0.00 | 0.00 | 0.00 | 28 | 1004.9 |
| 20260505204053 | 84 | 0 | 0.0 | 0.0 | 0.00 | 0.00 | 0.00 | 29 | 1004.9 |
| 20260505203053 | 84 | 0 | 0.0 | 0.0 | 0.00 | 0.00 | 0.00 | 29 | 1004.9 |
| 20260505202052 | 84 | 0 | 0.0 | 0.0 | 0.00 | 0.00 | 0.00 | 29 | 1004.9 |
| 20260505201053 | 84 | 0 | 0.0 | 0.0 | 0.00 | 0.00 | 0.00 | 29 | 1004.9 |
| 20260505200052 | 84 | 0 | 0.0 | 0.0 | 0.00 | 0.00 | 0.00 | 29 | 1005.2 |
| 20260505195052 | 83 | 0 | 0.0 | 0.0 | 0.00 | 0.00 | 0.00 | 29 | 1005.2 |
| 20260505194052 | 83 | 0 | 0.0 | 0.0 | 0.00 | 0.00 | 0.00 | 30 | 1005.2 |
| 20260505193052 | 83 | 0 | 0.0 | 0.0 | 0.00 | 0.00 | 0.00 | 30 | 1005.6 |
| 20260505192052 | 82 | 0 | 0.0 | 0.0 | 0.00 | 0.00 | 0.00 | 30 | 1005.6 |
| 20260505191051 | 83 | 0 | 0.0 | 0.0 | 0.00 | 0.00 | 0.00 | 31 | 1005.6 |
| 20260505190051 | 83 | 0 | 0.0 | 0.0 | 0.00 | 0.00 | 0.00 | 32 | 1005.6 |
| 20260505185052 | 83 | 0 | 0.0 | 0.0 | 0.00 | 0.00 | 0.00 | 32 | 1005.9 |
| 20260505184052 | 82 | 0 | 0.0 | 0.0 | 0.00 | 0.00 | 0.00 | 33 | 1005.6 |
| 20260505183051 | 83 | 0 | 0.0 | 0.0 | 0.00 | 0.00 | 0.00 | 32 | 1006.2 |
| 20260505182051 | 83 | 0 | 0.0 | 0.0 | 0.00 | 0.00 | 0.00 | 30 | 1006.2 |
| 20260505181051 | 82 | 0 | 0.0 | 0.0 | 0.00 | 0.00 | 0.00 | 33 | 1006.2 |
| 20260505180051 | 82 | 0 | 0.0 | 0.0 | 0.00 | 0.00 | 0.00 | 35 | 1006.2 |
| 20260505175050 | 82 | 0 | 0.0 | 0.0 | 0.00 | 0.00 | 0.00 | 37 | 1006.2 |
| 20260505174050 | 82 | 0 | 0.0 | 0.0 | 0.00 | 0.00 | 0.00 | 37 | 1006.6 |
| 20260505173050 | 82 | 0 | 0.0 | 0.0 | 0.00 | 0.00 | 0.00 | 37 | 1006.6 |
| 20260505172050 | 82 | 0 | 0.0 | 0.0 | 0.00 | 0.00 | 0.00 | 37 | 1006.6 |
| 20260505171050 | 81 | 0 | 0.0 | 0.0 | 0.00 | 0.00 | 0.00 | 39 | 1006.6 |
| 20260505170050 | 81 | 0 | 0.0 | 0.0 | 0.00 | 0.00 | 0.00 | 39 | 1006.9 |
| 20260505165049 | 81 | 0 | 0.0 | 0.0 | 0.00 | 0.00 | 0.00 | 39 | 1006.9 |
| 20260505164050 | 80 | 0 | 0.0 | 0.0 | 0.00 | 0.00 | 0.00 | 40 | 1007.2 |
| 20260505163049 | 79 | 0 | 0.0 | 0.0 | 0.00 | 0.00 | 0.00 | 41 | 1007.6 |
| 20260505162050 | 79 | 0 | 0.0 | 0.0 | 0.00 | 0.00 | 0.00 | 41 | 1007.6 |
| 20260505161049 | 79 | 0 | 0.0 | 0.0 | 0.00 | 0.00 | 0.00 | 43 | 1007.9 |
| 20260505153048 | 77 | 0 | 0.0 | 0.0 | 0.00 | 0.00 | 0.00 | 44 | 1008.3 |
| 20260505152048 | 77 | 0 | 0.0 | 0.0 | 0.00 | 0.00 | 0.00 | 45 | 1008.3 |
| 20260505151048 | 76 | 0 | 0.0 | 0.0 | 0.00 | 0.00 | 0.00 | 46 | 1008.3 |
| 20260505124046 | 62 | 0 | 0.0 | 0.0 | 0.00 | 0.00 | 0.00 | 61 | 1009.6 |
| 20260505123046 | 61 | 0 | 0.0 | 0.0 | 0.00 | 0.00 | 0.00 | 61 | 1009.6 |
| 20260505122046 | 59 | 0 | 0.0 | 0.0 | 0.00 | 0.00 | 0.00 | 63 | 1009.6 |
| 20260505121046 | 59 | 0 | 0.0 | 0.0 | 0.00 | 0.00 | 0.00 | 64 | 1010.0 |
| 20260505120045 | 58 | 0 | 0.0 | 0.0 | 0.00 | 0.00 | 0.00 | 64 | 1009.6 |
| 20260505115045 | 58 | 0 | 0.0 | 0.0 | 0.00 | 0.00 | 0.00 | 63 | 1009.6 |
| 20260505114045 | 58 | 0 | 0.0 | 0.0 | 0.00 | 0.00 | 0.00 | 65 | 1010.0 |
| 20260505113046 | 57 | 0 | 0.0 | 0.0 | 0.00 | 0.00 | 0.00 | 66 | 1010.0 |
| 20260505112046 | 56 | 0 | 0.0 | 0.0 | 0.00 | 0.00 | 0.00 | 68 | 1010.0 |
| 20260505111046 | 54 | 0 | 0.0 | 0.0 | 0.00 | 0.00 | 0.00 | 69 | 1010.0 |
| 20260505102044 | 46 | 0 | 0.0 | 0.0 | 0.00 | 0.00 | 0.00 | 78 | 1009.3 |
| 20260505101044 | 46 | 0 | 0.0 | 0.0 | 0.00 | 0.00 | 0.00 | 78 | 1009.3 |
| 20260505100044 | 46 | 0 | 0.0 | 0.0 | 0.00 | 0.00 | 0.00 | 77 | 1009.3 |
| 20260505095044 | 46 | 0 | 0.0 | 0.0 | 0.00 | 0.00 | 0.00 | 77 | 1009.3 |
| 20260505094044 | 46 | 0 | 0.0 | 0.0 | 0.00 | 0.00 | 0.00 | 77 | 1009.3 |
| 20260505093043 | 46 | 0 | 0.0 | 0.0 | 0.00 | 0.00 | 0.00 | 77 | 1009.3 |
| 20260505092043 | 46 | 0 | 0.0 | 0.0 | 0.00 | 0.00 | 0.00 | 77 | 1009.3 |
| 20260505091043 | 46 | 0 | 0.0 | 0.0 | 0.00 | 0.00 | 0.00 | 77 | 1008.9 |
| 20260505090044 | 46 | 0 | 0.0 | 0.0 | 0.00 | 0.00 | 0.00 | 77 | 1008.9 |
| 20260505085043 | 46 | 0 | 0.0 | 0.0 | 0.00 | 0.00 | 0.00 | 76 | 1008.9 |
| 20260505084043 | 46 | 0 | 0.0 | 0.0 | 0.00 | 0.00 | 0.00 | 76 | 1009.3 |
| 20260505083043 | 46 | 0 | 0.0 | 0.0 | 0.00 | 0.00 | 0.00 | 75 | 1008.9 |
| 20260505082043 | 47 | 0 | 0.0 | 0.0 | 0.00 | 0.00 | 0.00 | 75 | 1009.3 |
| 20260505081042 | 47 | 0 | 0.0 | 0.0 | 0.00 | 0.00 | 0.00 | 75 | 1009.3 |